Location: Bussy-Saint-Georges
(48.8410°N, 2.7017°E)
Time: 01:13:02
(UTC+00:00)

Daily predictions for brighter satellites

Satellite Brightness Start Highest point End
(mag) Time Altitude Azimuth Time Altitude Azimuth Time Altitude Azimuth
USA 215 4.4 01:11:41 10° E 01:16:10 39° NE 01:16:10 39° NE
ATLAS 2AS CENTAUR R/B 3.7 01:22:05 43° ENE 01:22:05 43° ENE 01:26:46 10° NE
Resurs 1-4 Rocket 4.0 01:41:29 10° NNE 01:43:37 25° NNE 01:43:37 25° NNE
NOSS 3-1 (A) 4.2 01:55:41 62° N 01:56:38 68° NE 02:05:14 10° SE
SL-16 R/B 3.8 02:10:01 31° NNW 02:10:01 31° NNW 02:13:03 10° NNW
USA 281 3.6 02:01:23 10° NNE 02:07:16 56° E 02:07:16 56° E
ADEOS II 3.6 02:03:44 10° NNE 02:06:36 33° NNE 02:06:36 33° NNE
CZ-2D R/B 3.7 02:08:49 10° N 02:11:32 30° N 02:11:32 30° N
CZ-2C R/B 4.1 02:19:07 29° N 02:19:07 29° N 02:21:46 10° N
IDEFIX/ARIANE 42P 4.1 02:17:20 10° N 02:19:53 29° N 02:19:53 29° N
Cosmos 2237 Rocket 4.4 02:20:09 10° N 02:24:41 24° NE 02:29:11 10° E
Lacrosse 5 rocket 3.8 02:31:30 19° ENE 02:31:30 19° ENE 02:32:44 10° ENE
Lacrosse 4 Rocket 4.2 02:33:06 12° N 02:33:06 12° N 02:33:41 10° N
Cosmos 2082 Rocket 4.1 02:32:50 19° NNW 02:32:50 19° NNW 02:35:52 10° N
ATLAS CENTAUR R/B 3.5 02:34:10 64° NW 02:34:54 67° NNW 02:47:00 10° ENE
FENGYUN 3A 4.0 02:40:30 10° NNE 02:44:55 61° NNE 02:44:55 61° NNE
ATLAS 5 CENTAUR R/B 4.1 02:46:58 13° N 02:47:14 13° N 02:49:14 10° NNE
COSMOS 2428 3.0 02:42:30 10° NNW 02:48:11 65° ENE 02:53:51 10° SE
Timation 1 Rocket 4.3 02:49:01 77° NNE 02:49:01 77° NNE 02:54:35 10° NNE
CZ-2C R/B 3.5 02:51:22 10° NNE 02:55:48 37° E 02:56:50 33° SE
ALOS 2.9 02:52:52 10° NNE 02:56:20 50° NNE 02:56:20 50° NNE
USA 215 3.3 02:53:56 10° ESE 03:00:29 78° NNE 03:03:31 35° NW
Meteor 1-26 Rocket 4.5 03:11:34 54° NW 03:11:34 54° NW 03:16:31 10° N
ATLAS 2AS CENTAUR R/B 3.4 03:09:31 38° WNW 03:10:59 42° NNW 03:17:44 10° NE
Cosmos 1655 Rocket 3.9 03:13:15 63° W 03:13:42 65° WNW 03:20:05 10° N
Cosmos 1833 4.5 03:14:15 52° NW 03:14:15 52° NW 03:19:30 10° NNE
SL-08 ROCKET BODY 4.3 03:16:47 63° WSW 03:17:14 66° WNW 03:23:18 10° N
Cosmos 2150 Rocket 4.4 03:16:29 40° SSE 03:18:08 59° ESE 03:23:18 10° NNE
CZ-2C R/B 3.1 03:13:14 10° NNE 03:18:59 82° WNW 03:19:54 64° SSW
Meteor 2-12 Rocket 4.4 03:20:51 57° W 03:21:11 58° WNW 03:27:17 10° N
Thor Agena Rocket 3.6 03:16:18 10° N 03:21:27 62° WNW 03:21:27 62° WNW
Resurs 1-4 Rocket 3.9 03:22:20 10° NNW 03:24:40 18° NW 03:24:40 18° NW
Cosmos 1743 Rocket 3.5 03:22:45 10° N 03:27:07 82° E 03:27:40 67° SSE
Meteor 1-11 Rocket 4.0 03:22:17 10° N 03:28:12 73° ENE 03:34:09 10° SSE
Meteor 1-14 Rocket 4.3 03:22:57 10° NNW 03:28:50 60° W 03:30:00 50° SW
Cosmos 1805 Rocket 3.5 03:25:09 10° N 03:29:31 82° E 03:30:45 46° SSE
Cosmos 1980 4.2 03:25:40 10° NNW 03:31:17 60° ENE 03:36:52 10° SE
USA 229 DEB 3.8 03:24:06 10° NW 03:31:30 80° SW 03:39:30 10° SSE
USA 229 3.8 03:24:11 10° NW 03:31:35 81° SW 03:39:35 10° SSE
Cosmos 1867 3.9 03:33:23 47° SSW 03:33:23 47° SSW 03:37:39 10° SSE
ATLAS CENTAUR R/B 3.7 03:35:05 10° NNW 03:37:40 18° NNE 03:40:12 10° ENE
Sich 1 2.9 03:33:59 10° N 03:38:20 88° W 03:41:10 21° S
Meteor 2-6 Rocket 4.0 03:38:04 52° WSW 03:39:05 63° WNW 03:44:28 10° N
GP-B 3.0 03:38:17 30° S 03:40:27 86° E 03:44:54 10° N
Cosmos 1484 Rocket 4.3 03:37:36 10° NNE 03:40:54 32° E 03:44:11 10° SSE
Cosmos 1244 Rocket 4.4 03:39:43 20° SSW 03:44:15 83° W 03:50:37 10° N
YAOGAN 6 2.4 03:42:16 10° NNE 03:45:34 81° ENE 03:45:34 81° ENE
BlueWalker 3 3.5 03:48:24 24° S 03:48:24 24° S 03:50:17 10° SSE
NOSS 3-1 (A) 4.4 03:43:24 24° WNW 03:47:32 41° WSW 03:55:36 10° S
ADEOS II 3.6 03:44:22 10° NNW 03:47:29 20° NW 03:47:29 20° NW
Meteor 1-10 Rocket 4.1 03:44:45 24° SSW 03:48:12 84° WNW 03:53:47 10° N
USA 281 3.9 03:46:14 10° NNE 03:52:08 37° NW 03:54:07 30° W
IRS-1D 3.6 03:46:59 10° N 03:52:13 60° WNW 03:54:06 37° SW
CZ-2D R/B 4.1 03:50:41 10° NNW 03:52:49 14° NW 03:52:49 14° NW
Envisat 2.9 03:49:25 10° NNE 03:54:30 80° WNW 03:57:47 22° SSW
TIMED 4.4 03:58:24 38° SSW 04:00:03 80° WNW 04:04:24 10° NNE
Cosmos 2297 Rocket 2.7 03:55:16 10° S 04:00:47 58° ESE 04:06:20 10° NE
Cosmos 1536 2.8 04:02:33 10° NNW 04:06:19 49° W 04:07:16 39° SW
Lacrosse 5 rocket 2.2 04:06:40 30° NW 04:07:40 35° NNW 04:11:16 10° NE
Cosmos 1125 Rocket 4.0 04:06:14 33° W 04:07:43 41° WNW 04:12:40 10° NNE
Cosmos 2237 Rocket 2.1 04:03:43 10° NNW 04:09:26 81° WSW 04:15:06 10° SSE
METEOR-M 4.4 04:05:59 10° N 04:11:07 48° WNW 04:13:57 25° SW
SL-16 R/B 3.3 04:13:29 10° NNW 04:18:58 46° NE 04:24:26 10° SE
Okean 1 3.1 04:16:06 12° SSW 04:19:38 76° W 04:23:31 10° N
Cosmos 1726 2.3 04:19:01 10° N 04:22:26 64° E 04:25:50 10° SSE
H-2A R/B 3.1 04:19:44 10° NNE 04:23:11 59° E 04:26:37 10° S
ERS-2 3.8 04:21:46 10° NE 04:24:35 29° E 04:27:23 10° SSE
Cosmos 1975 3.7 04:21:01 10° N 04:24:53 51° ENE 04:28:46 10° SSE
COBE Rocket 4.0 04:22:14 10° N 04:26:57 54° WNW 04:31:45 10° SSW
PAYLOAD A 4.5 04:24:30 10° N 04:29:01 38° WNW 04:32:20 18° SW
Cosmos 2344 4.2 04:23:07 10° SSW 04:30:26 53° ESE 04:37:34 10° NE
IRS-1C 4.4 04:25:14 10° NNE 04:30:35 72° ESE 04:35:54 10° S
Nadezhda 1 Rocket 4.0 04:25:12 10° NNW 04:31:22 60° W 04:37:25 10° S
COSMOS 2428 3.7 04:27:33 10° NW 04:31:58 24° WSW 04:36:22 10° SSW
CBERS-1 4.1 04:27:41 10° N 04:32:41 55° WNW 04:37:39 10° SW
NOSS 0 Rocket 4.4 04:27:20 10° NW 04:33:01 38° WSW 04:38:40 10° S
ATLAS 5 CENTAUR R/B 4.1 04:30:03 10° NNW 04:33:12 18° NNE 04:36:45 10° ENE
CZ-2C R/B 3.2 04:29:44 10° N 04:33:51 30° WNW 04:36:08 20° WSW
ALOS 4.0 04:31:33 10° NNW 04:34:12 15° WNW 04:34:43 15° WNW
Cosmos 1151 Rocket 3.4 04:31:38 12° SSW 04:35:33 44° WNW 04:39:46 10° N
Cosmos 1733 3.0 04:38:23 10° N 04:42:07 89° E 04:45:47 10° S
Cosmos 1515 Rocket 4.3 04:39:25 10° S 04:43:42 56° E 04:48:00 10° NNE
USA 215 3.7 04:37:44 10° SSE 04:43:50 41° SW 04:49:58 10° WNW
Cosmos 1666 Rocket 3.8 04:40:35 10° NNW 04:44:46 45° W 04:48:54 10° SSW
BREEZE-M DEB (TANK) 3.9 04:42:21 17° WSW 04:45:40 84° SSE 05:04:18 10° E
Meteor 2-20 Rocket 4.5 04:39:35 10° NNW 04:45:45 61° W 04:51:39 10° S
ARIANE 5 R/B 2.5 04:40:55 10° NNE 04:45:59 87° ESE 04:50:58 10° SSW
Cosmos 1328 Rocket 3.5 04:42:14 10° SSW 04:46:38 69° WNW 04:51:01 10° N
Cosmos 2227 Rocket 2.4 04:41:54 10° SSW 04:47:34 76° ESE 04:53:16 10° NNE
COSMO-SKYMED 1 2.9 04:44:03 10° SSE 04:48:21 72° ENE 04:52:43 10° N
Cosmos 44 Rocket 3.4 04:43:54 12° SW 04:48:39 66° NW 04:53:51 10° NE
Cosmos 2263 Rocket 4.4 04:46:03 10° SSE 04:50:47 29° ESE 04:55:31 10° NE
Cosmos 1933 Rocket 4.2 04:46:30 10° N 04:50:47 60° ENE 04:55:04 10° SSE
Genesis I 3.8 04:48:16 10° NNW 04:51:56 55° NE 04:55:33 10° SE
Meteor 1-27 Rocket 4.2 04:49:37 10° SW 04:54:55 41° WNW 05:00:21 10° N
CZ-2D R/B 3.7 04:51:59 10° NNE 04:56:20 82° E 05:00:42 10° SSW
Helios 1A 3.5 04:56:27 10° SSW 05:00:10 33° W 05:03:54 10° NNW
ATLAS 2AS CENTAUR R/B 4.2 04:58:01 10° WNW 05:03:49 25° N 05:09:25 10° NE
IRS-P3 4.1 04:59:23 10° NNE 05:04:45 75° WNW 05:10:04 10° SSW
Cosmos 1238 4.3 05:04:28 10° NNW 05:07:27 49° W 05:10:24 10° S
Cosmos 1709 Rocket 4.1 05:01:16 10° SSW 05:07:34 61° WNW 05:13:53 10° N
Cosmos 1805 3.1 05:05:08 10° NNW 05:08:54 65° W 05:12:38 10° S
Cosmos 1140 Rocket 3.6 05:07:39 10° NNW 05:12:56 89° SW 05:18:10 10° SSE
Cosmos 1633 Rocket 3.9 05:09:26 10° NNW 05:13:15 29° W 05:17:03 10° SSW
Meteor 2-4 Rocket 3.8 05:08:40 10° SSW 05:14:33 71° WNW 05:20:22 10° N
Cosmos 1484 Rocket 3.9 05:11:57 10° NNW 05:14:47 22° WNW 05:17:37 10° WSW
Spot 4 Rocket 4.5 05:10:12 10° NNE 05:15:20 70° ESE 05:20:26 10° S
ATLAS CENTAUR R/B 0.9 05:12:36 10° NW 05:16:11 73° SW 05:19:45 10° SSE
H-2A R/B 2.2 05:16:37 10° N 05:22:03 69° WNW 05:27:24 10° SSW
Meteor 1-18 Rocket 4.4 05:20:01 10° SSW 05:25:48 62° WNW 05:31:32 10° N
Cosmos 1066 Rocket 4.5 05:22:20 10° S 05:28:11 84° E 05:34:00 10° NNE
